Regional Weather Roundup
Issued by NWS

Home | Current Version | Previous Version | Graphics & Text | Print | Product List | Glossary On
Versions: 1 2 3 4 5 6 7 8 9 10 11 12 13 14 15 16 17 18 19 20 21 22 23 24 25 26 27
000
ASUS45 KCYS 301510
RWRWY

WYOMING REGIONAL WEATHER ROUNDUP
NATIONAL WEATHER SERVICE CHEYENNE WY
900 AM MDT FRI SEP 30 2016

NOTE:  "FAIR" INDICATES FEW OR NO CLOUDS BELOW 12,000 FEET
WITH NO SIGNIFICANT WEATHER AND/OR OBSTRUCTIONS TO VISIBILITY.

WYZ001-301600-
YELLOWSTONE NATIONAL PARK

CITY           SKY/WX    TMP DP  RH WIND       PRES   REMARKS
LK YELLOWSTONE   N/A     39  38  96 CALM      30.38R
W YELLOWSTONE  NOT AVBL

$$
WYZ002>013-054>058-071-098>099-301600-
NORTHERN WYOMING

CITY           SKY/WX    TMP DP  RH WIND       PRES   REMARKS
JACKSON        FOG       45  43  93 CALM      30.34R VSB 1
CODY           FAIR      64  43  45 W16G24    30.17R
GREYBULL       FAIR      56  50  80 CALM      30.13R
WORLAND        FAIR      55  50  83 S6        30.13S
SHERIDAN       FAIR      60  50  69 W3        30.07S
BUFFALO        FAIR      69  43  38 W5        30.13R
GILLETTE       FAIR      63  50  62 SW16      30.08F
HULETT         FAIR      66  46  48 SW8G16    30.11R
NEWCASTLE      FAIR      61  43  51 E7        30.14F

$$
WYZ014>020-022>026-101>103-301600-
CENTRAL WYOMING

CITY           SKY/WX    TMP DP  RH WIND       PRES   REMARKS
BIG PINEY      FAIR      42  38  85 CALM      30.36R
PINEDALE       FAIR      41  41 100 CALM      30.36S
DUBOIS         FAIR      46  39  76 W14       30.30S
LANDER         FAIR      52  45  77 CALM      30.22S
RIVERTON       FAIR      53  47  79 W6        30.22S
CASPER         FAIR      61  50  67 SW7       30.21S
DOUGLAS        CLOUDY    61  51  70 CALM      30.19R

$$
WYZ021-027>030-104>119-301600-
SOUTHERN WYOMING

CITY           SKY/WX    TMP DP  RH WIND       PRES   REMARKS
EVANSTON       CLOUDY    51  41  68 CALM      30.35R
FORT BRIDGER   SUNNY     54  43  66 W5        30.37S
ROCK SPRINGS   FAIR      54  45  71 CALM      30.34R
DIXON          CLOUDY    56  48  73 S7        30.38S
RAWLINS        CLOUDY    55  47  74 CALM      30.33R
SARATOGA       LGT RAIN  50  50 100 E13       30.37R
LARAMIE        LGT RAIN  50  48  93 W5        30.35S
CHEYENNE       LGT RAIN  58  46  64 W5        30.28R
TORRINGTON     FAIR      53  42  66 SE6       30.19R
PINE BLUFFS    FAIR      52  43  71 CALM      30.24R

$$




USA.gov is the U.S. government's official web portal to all federal, state and local government web resources and services.